バーナード-ボアッティーニ彗星

206P/Barnard-Boattini (2021)

English version
Home page
Updated on November 6, 2020

---------------------------------------------------------------------

・ プロフィール

・ 軌道要素

Epoch 2021 Mar. 7.0 TT = JDT 2459280.5
T 2021 Mar. 4.49283 TT                                  MPCW
q   1.5647377            (2000.0)            P               Q
n   0.15134192     Peri.  189.46858     +0.86022197     -0.46440196
a   3.4873582      Node   202.34679     +0.49655689     +0.85683089
e   0.5513115      Incl.   33.63367     +0.11597161     -0.22399025
P   6.51
From 264 observations 1892 Oct. 17-2009 Jan. 4, mean residual 0".6.

・ 光度変化

        m1 = 19.2 + 5 logΔ + 10.0 log r

---------------------------------------------------------------------

軌道要素はM.P.E.C. 2015-E14に掲載されたものです。
光度グラフはComet for Windowsで作成したものです。

---------------------------------------------------------------------

Copyright(C) Seiichi Yoshida (comet@aerith.net). All rights reserved.